Theta_e
330 325 321 317 305 302 297 298 301 302 302 304 311 306 302 306 307 304 330 337 340 339 343 348 350 352 350 348 349 348 346 342 342 341 340 339 340 341 341 343 344 344 345 342 340 338 338 336 335
320 319 318 313 300 295 294 300 299 303 306 306 307 305 304 306 318 320 331 339 341 341 342 345 348 351 351 350 349 347 344 342 341 340 339 339 339 339 340 341 342 344 344 342 340 337 337 334 334
321 317 311 305 300 295 295 298 301 305 305 304 302 305 305 309 318 325 336 339 341 341 341 344 347 350 351 349 349 347 346 342 341 339 338 337 337 338 339 340 342 344 343 341 339 337 335 333 333
316 312 309 299 298 299 299 300 303 304 302 303 303 301 310 317 319 330 338 339 338 340 343 343 348 351 351 349 348 347 345 342 340 338 336 336 336 338 338 339 343 344 341 340 337 335 333 331 331
314 311 301 298 298 299 301 303 302 303 303 303 303 300 307 316 326 331 336 338 338 338 343 345 347 349 349 349 347 347 345 342 339 337 335 334 334 336 337 340 341 339 338 336 334 332 330 329 330
306 306 297 295 298 300 300 303 301 301 302 303 301 300 308 319 323 329 336 336 339 342 345 344 340 344 346 347 346 346 345 343 340 337 334 333 333 335 336 339 337 334 334 333 331 329 328 328 328
306 302 297 297 298 298 301 304 299 300 301 301 303 298 309 316 322 330 333 337 337 342 343 343 344 342 339 341 342 343 343 342 340 339 335 334 334 336 336 337 334 331 331 330 328 328 327 327 328
305 303 298 296 296 297 302 302 302 301 300 304 305 298 301 313 321 326 331 331 335 340 342 342 342 343 343 340 335 337 339 339 339 336 331 329 330 331 331 330 332 330 328 327 327 326 326 326 325
307 297 294 297 297 297 302 299 301 303 301 301 306 303 310 317 324 322 325 326 329 336 339 341 341 341 339 341 336 333 334 334 333 330 326 323 322 323 324 326 328 327 325 325 325 325 324 323 323
301 296 297 299 299 298 301 299 301 298 299 300 302 306 311 319 320 320 323 323 326 332 335 338 339 340 338 340 338 338 336 335 334 331 324 327 323 322 322 321 324 324 324 323 323 323 323 319 313
301 297 299 299 301 301 301 298 302 298 298 301 301 304 308 315 318 319 323 323 325 328 334 336 337 337 337 338 339 339 337 336 334 330 326 330 324 320 319 317 316 315 316 315 317 318 314 313 312
295 300 299 302 301 300 298 302 299 300 300 303 304 305 306 313 316 317 320 322 324 326 330 333 334 337 338 338 339 338 337 337 334 329 331 328 323 321 318 315 313 312 312 310 312 312 311 310 310
297 298 300 300 300 298 301 298 298 299 302 304 305 304 305 308 313 316 318 321 323 325 328 331 332 335 337 338 339 339 337 338 335 329 330 328 325 323 319 319 317 316 314 314 311 310 308 307 307
300 301 300 300 300 300 298 297 297 298 300 301 303 302 303 305 307 311 315 317 321 324 325 330 333 333 336 338 337 338 338 337 336 330 330 328 327 323 321 318 318 316 315 313 311 308 305 303 304
301 296 299 299 300 298 299 296 297 300 302 301 300 300 302 304 305 306 311 315 318 321 326 327 332 334 333 335 336 336 337 337 336 333 330 327 326 323 320 318 316 315 314 311 309 305 303 299 299
296 294 289 297 299 298 297 290 299 299 298 299 300 300 301 303 304 305 306 313 317 320 324 327 330 332 332 332 332 332 335 336 335 335 333 330 327 324 320 317 316 315 313 310 306 303 300 296 294
294 287 290 294 299 298 296 292 298 299 298 298 299 301 302 303 303 304 305 306 315 318 323 325 327 328 330 330 331 330 331 330 332 335 334 333 328 324 321 318 316 315 312 308 304 301 299 295 294
288 289 291 289 295 295 293 293 298 300 299 298 298 299 300 301 303 306 306 306 308 317 320 324 327 326 327 327 326 326 326 326 331 331 333 334 330 325 321 318 317 315 309 306 303 299 296 294 293
293 291 289 292 296 293 292 293 295 297 297 297 297 298 299 300 303 305 306 305 306 310 316 323 325 324 325 324 323 322 323 322 321 326 327 330 331 327 323 318 316 313 309 306 301 297 294 293 293
292 290 289 292 296 292 292 292 296 297 297 299 298 299 300 300 300 303 305 305 305 306 312 318 323 323 323 324 323 322 321 320 319 318 319 324 327 327 323 319 315 313 308 302 299 296 294 292 292
291 289 288 289 292 292 290 288 292 296 298 299 300 301 300 300 301 301 302 304 303 304 307 313 318 321 322 321 318 314 314 312 313 314 314 314 316 324 325 319 315 311 308 302 299 297 295 290 291
288 293 293 291 288 283 291 280 288 293 295 296 298 299 299 300 302 302 302 303 303 303 304 308 312 315 318 316 314 312 312 310 308 309 307 306 309 313 319 317 314 312 308 305 300 298 296 294 290
291 294 292 290 287 286 286 282 287 292 291 294 297 299 299 300 301 301 301 302 303 305 304 305 306 309 311 312 311 310 308 308 307 306 305 303 305 307 309 315 312 310 308 305 301 297 296 294 293
296 292 291 289 287 280 286 285 284 288 291 294 296 297 299 299 299 299 299 300 300 302 303 304 304 305 308 309 310 309 307 305 305 306 306 304 302 302 304 306 309 309 307 303 300 297 296 295 296
292 288 280 280 278 278 286 283 287 293 295 295 297 298 299 300 300 298 297 297 298 299 301 303 303 303 305 307 308 308 307 306 306 306 304 300 300 297 301 303 304 305 305 303 301 297 296 296 296
289 289 282 275 278 280 283 281 287 295 296 299 299 298 299 299 300 299 300 299 298 300 301 301 302 302 304 305 306 307 307 306 306 307 305 303 301 302 300 300 302 302 302 301 299 298 297 297 297
289 286 291 284 277 277 282 287 292 295 297 297 298 298 297 298 299 299 299 299 299 299 300 301 301 302 303 304 305 305 305 305 305 305 305 304 301 300 297 299 299 299 299 301 300 298 297 297 296
291 293 283 284 274 273 280 282 286 292 294 296 296 297 299 298 299 299 298 298 298 299 300 301 302 302 302 303 304 304 303 304 304 304 303 302 301 298 295 294 296 296 296 297 297 296 296 296 296
288 287 289 288 285 279 277 282 293 294 295 295 297 298 298 298 299 297 297 297 298 298 299 300 300 300 301 302 302 302 302 302 303 302 301 298 296 293 292 290 291 291 292 294 295 294 294 295 294
291 289 290 283 281 283 282 285 295 295 296 295 295 298 297 298 298 297 297 296 296 297 297 298 300 300 300 301 301 300 301 301 300 299 297 295 293 290 289 288 287 288 289 290 291 290 291 291 288
Wind_Speed
9 10 6 3 1 2 4 5 5 6 4 4 6 7 3 6 5 3 4 3 13 17 14 12 13 13 13 13 12 13 12 12 12 12 13 12 12 12 12 13 12 12 18 19 20 20 19 19 18
7 7 2 5 2 2 4 8 4 6 7 8 5 0 4 4 7 6 6 3 11 16 13 12 12 14 14 13 11 13 12 12 13 13 12 12 12 13 13 12 11 10 19 19 20 18 18 18 17
8 4 2 2 3 5 4 3 9 9 6 4 3 1 4 4 7 8 11 7 10 14 12 13 13 14 15 13 12 13 13 13 13 12 12 12 13 13 13 12 10 16 19 19 19 17 17 16 15
3 2 4 2 4 7 5 7 11 8 3 3 2 2 5 6 4 10 9 10 9 11 12 15 14 15 14 14 12 13 13 13 13 12 12 13 13 13 13 11 13 17 19 19 18 16 16 15 15
2 4 3 4 3 4 5 6 6 8 9 8 4 2 5 4 10 7 9 9 9 8 13 12 13 13 13 14 13 14 14 13 13 13 13 13 13 13 13 13 18 19 18 18 17 16 16 16 14
3 2 4 5 4 6 3 6 4 5 7 6 3 3 5 10 8 7 8 8 9 12 12 11 10 11 12 13 13 13 14 13 13 13 13 13 13 13 13 14 15 15 16 16 16 16 16 15 14
2 2 7 8 3 4 5 7 4 5 7 6 4 3 4 8 8 7 8 8 8 14 12 10 8 9 10 12 12 12 14 14 13 13 12 12 11 12 12 13 16 15 16 16 17 17 16 16 15
2 2 7 6 4 2 5 5 3 3 2 3 3 2 5 8 9 7 7 6 6 12 13 9 10 8 8 7 12 12 13 13 12 12 12 12 12 12 12 11 15 16 16 17 17 17 17 15 14
1 3 4 5 4 1 6 3 2 4 3 1 6 3 3 11 10 7 6 6 5 8 9 10 10 11 9 9 8 11 13 13 13 12 12 11 7 8 7 10 14 16 17 18 17 17 16 13 10
2 2 5 6 8 6 6 2 6 2 4 4 5 8 3 9 8 8 7 7 7 9 9 10 10 11 11 9 10 9 8 8 8 8 10 5 6 7 9 9 12 14 15 17 18 18 14 8 4
4 3 5 8 7 8 5 1 5 3 6 7 11 13 12 8 9 9 9 8 9 8 8 9 10 10 9 8 8 6 6 6 6 8 6 5 6 8 6 4 4 5 6 4 6 5 2 6 5
3 6 3 4 5 3 1 5 5 6 8 3 8 6 11 11 10 10 10 10 9 9 9 10 10 11 10 6 7 7 7 7 7 8 9 7 6 7 8 5 5 4 4 5 4 4 6 6 6
3 4 3 5 3 3 3 5 7 9 9 9 7 3 11 10 10 9 9 9 9 10 10 9 8 10 9 10 7 7 8 8 8 9 7 7 8 7 8 7 7 6 5 4 5 5 5 5 6
4 6 4 3 5 4 2 5 0 6 4 8 8 10 8 9 12 8 9 10 10 10 10 10 11 7 9 10 10 9 8 8 7 8 9 9 7 8 6 6 6 4 4 5 5 5 5 5 5
2 4 7 9 6 1 1 7 11 13 9 8 5 6 9 11 10 12 11 11 10 7 10 10 14 10 8 10 10 9 8 9 9 9 11 11 9 9 9 7 5 4 4 7 7 6 5 5 5
4 3 3 4 8 4 2 6 7 3 3 6 6 8 10 12 13 10 10 10 10 8 10 10 9 12 8 7 6 5 8 8 8 9 10 13 12 11 10 8 7 6 8 4 4 7 7 5 5
5 4 7 4 5 4 6 5 4 3 3 6 8 9 8 8 10 11 11 10 11 10 10 10 11 12 11 7 6 6 6 5 6 8 8 13 13 13 10 9 9 11 7 8 7 4 7 8 6
5 4 6 2 6 4 6 10 11 12 11 10 10 10 10 10 12 11 12 12 10 10 10 10 10 11 9 5 5 4 4 4 6 7 7 12 11 14 10 9 10 9 7 8 8 10 6 8 8
7 5 8 8 6 5 7 11 11 10 10 12 10 10 10 11 9 10 12 12 11 9 10 13 12 13 10 8 8 6 8 4 3 5 8 8 10 14 14 9 11 10 12 9 11 9 11 8 9
1 5 8 8 7 2 7 13 15 12 12 13 10 12 11 9 7 9 10 11 14 13 9 9 13 12 12 10 8 6 5 3 4 4 4 5 7 15 13 14 13 12 10 12 11 14 9 4 9
6 7 7 8 3 6 6 8 13 7 9 10 12 13 10 10 10 9 7 11 10 11 12 10 10 13 14 11 5 3 3 3 4 5 4 4 4 8 14 15 14 14 11 12 15 15 16 11 10
5 3 9 3 4 4 3 8 6 13 16 9 13 11 9 10 10 9 6 5 9 8 8 8 8 8 10 10 7 9 9 9 4 4 4 5 5 6 9 15 15 15 12 13 13 14 13 11 14
2 4 3 2 2 6 7 5 8 9 8 10 10 9 8 5 7 7 5 2 4 7 8 8 9 8 8 9 8 6 6 4 3 4 8 6 5 6 5 11 13 14 11 13 15 13 12 10 9
8 5 3 0 1 7 9 8 5 7 5 8 2 1 4 6 5 6 7 7 4 5 4 5 7 6 8 9 9 8 8 5 5 5 7 6 4 4 5 6 11 11 12 13 13 13 13 12 8
2 5 1 3 0 10 1 5 7 5 5 3 10 5 6 7 6 7 6 3 3 3 3 3 4 6 7 8 8 8 8 8 8 6 7 6 5 4 9 9 9 9 11 11 12 13 14 13 12
10 8 7 8 5 6 3 9 7 6 4 6 8 8 9 9 7 6 7 8 8 7 6 5 5 5 7 7 8 7 8 5 5 6 5 6 7 7 7 8 8 9 10 10 12 10 11 12 11
6 9 5 4 2 3 6 8 11 11 12 8 10 7 7 7 7 8 7 5 6 7 7 8 7 6 7 7 6 7 6 7 5 6 5 5 6 6 9 10 9 9 9 11 12 9 13 13 13
5 2 3 2 4 5 8 7 10 10 6 7 6 9 9 4 6 6 7 7 5 5 5 5 5 7 5 7 6 5 7 6 6 5 6 6 6 7 8 8 9 8 8 9 10 8 10 11 9
5 4 5 5 6 6 4 7 3 8 6 7 9 9 9 4 6 5 3 4 4 4 5 5 6 6 6 6 6 6 6 6 6 6 6 6 5 7 7 7 7 8 9 9 9 8 9 12 11
6 11 10 6 4 5 4 13 3 7 7 7 6 7 8 8 5 4 3 4 4 4 4 6 5 6 6 6 6 7 6 6 7 6 6 6 6 5 7 7 7 8 9 9 10 10 10 12 13
Wind_Direction
291 260 249 311 279 196 120 97 74 95 129 62 25 41 349 26 19 98 194 113 126 130 136 145 142 141 137 136 129 115 104 105 103 101 99 99 98 92 86 72 71 88 97 91 84 79 72 71 71
297 301 267 270 249 223 81 119 145 123 88 84 65 330 298 103 81 119 124 163 138 128 142 140 137 136 136 134 127 116 115 110 106 103 101 98 95 93 90 84 86 86 94 89 87 81 76 73 72
264 271 286 229 290 41 96 84 124 87 104 145 148 42 357 77 88 153 130 160 133 130 151 137 138 140 140 138 130 123 119 118 113 109 107 101 99 98 94 87 80 98 97 97 90 84 79 76 74
297 238 272 292 282 73 40 86 105 115 99 36 41 154 87 41 125 127 140 138 134 136 133 138 141 142 141 140 136 127 125 126 121 116 108 103 101 100 96 93 92 91 94 93 91 89 86 82 76
242 272 269 220 324 97 89 65 134 160 152 152 165 154 104 129 79 113 140 148 138 143 122 136 138 142 144 144 145 139 135 131 124 117 112 110 109 107 105 94 97 93 91 93 95 94 89 85 76
287 250 278 233 218 98 100 133 167 173 137 83 143 298 95 125 133 164 148 162 147 119 131 132 139 143 146 148 148 143 136 130 125 121 119 117 115 114 113 101 97 100 96 102 100 97 95 90 77
265 222 263 298 7 107 149 134 187 207 138 168 92 327 105 138 160 156 157 174 161 130 120 138 151 155 151 149 150 145 141 136 135 130 124 116 113 111 107 105 105 113 112 107 104 98 94 87 70
314 296 261 265 291 351 92 146 15 242 132 85 96 341 134 159 148 152 161 183 167 133 136 158 157 159 159 155 154 151 146 140 136 124 118 114 106 101 99 96 110 116 114 112 106 102 96 80 57
289 316 251 256 231 354 111 180 123 344 100 62 159 63 66 124 123 166 164 178 171 133 151 163 166 165 168 158 162 154 149 145 137 134 135 134 133 125 120 114 121 123 122 118 114 109 101 83 62
214 209 267 28 30 32 119 259 156 161 221 182 155 94 99 131 153 179 179 180 190 159 166 171 173 173 169 169 155 160 155 156 153 150 157 147 143 138 117 117 120 123 123 126 126 125 124 102 72
219 241 31 33 37 26 358 328 280 189 263 200 195 184 165 166 176 192 192 194 188 178 170 178 178 177 169 164 156 165 162 166 154 153 169 132 119 124 121 121 113 114 115 126 125 130 100 90 83
317 239 20 41 50 352 286 331 318 230 246 51 39 43 153 176 187 197 196 198 184 190 181 182 181 175 178 155 162 166 167 174 162 168 168 149 142 144 144 143 140 149 151 160 145 86 79 74 78
221 272 70 101 118 260 331 268 257 278 270 253 133 72 164 180 198 201 206 200 191 187 186 190 186 181 174 162 169 169 186 174 172 162 172 165 157 151 158 155 161 173 156 142 105 101 90 85 76
24 354 284 175 215 190 240 273 213 254 214 238 223 185 205 203 198 205 201 210 200 186 186 179 188 199 169 172 177 182 181 176 163 165 175 174 165 154 150 155 161 144 132 121 121 122 111 92 91
344 292 238 219 194 160 253 283 228 239 252 218 236 255 203 208 214 207 204 203 199 197 182 179 182 198 189 174 181 183 186 168 172 173 176 174 169 172 154 159 150 152 118 128 125 110 103 95 87
229 199 259 360 119 151 162 276 288 126 32 280 234 233 225 216 216 211 212 198 198 188 185 174 178 188 189 194 181 181 176 180 174 174 177 181 175 169 160 160 161 147 138 127 118 132 127 111 111
198 266 214 142 195 124 182 275 350 112 190 255 258 258 250 233 207 208 202 209 197 193 182 183 177 183 190 193 185 182 193 174 151 165 176 177 175 170 169 166 163 155 156 141 140 135 143 133 121
220 225 244 236 190 221 220 249 269 276 261 248 245 244 241 238 226 205 197 198 199 189 191 189 178 177 179 179 185 183 183 197 154 172 167 181 181 175 171 167 162 154 153 153 142 144 125 127 130
295 339 314 309 157 196 242 271 265 265 279 270 258 256 251 242 229 220 202 185 185 190 193 191 178 178 176 185 190 188 198 182 144 161 167 177 185 178 175 166 164 161 156 167 146 133 137 135 140
125 257 277 288 101 158 273 275 273 258 248 252 255 258 257 264 265 237 201 182 181 185 189 188 189 176 186 192 193 194 181 183 159 152 154 192 191 183 177 169 171 173 155 152 160 153 136 148 172
240 240 266 265 301 218 267 268 257 281 232 251 258 254 253 246 254 255 231 188 169 176 184 189 190 187 188 188 172 163 153 147 154 185 180 195 220 200 179 175 171 172 169 173 168 167 161 168 194
251 297 230 263 320 241 132 280 298 295 279 249 246 246 247 233 234 220 204 164 177 184 170 176 185 185 185 180 186 190 196 195 182 155 145 169 201 237 185 173 172 172 173 178 182 179 179 161 181
219 6 58 86 253 309 201 244 251 223 268 246 258 272 266 79 64 68 79 147 162 166 172 178 176 183 178 181 180 183 193 182 151 160 167 158 177 206 199 178 172 172 183 175 178 181 185 180 184
130 86 67 49 216 272 170 212 214 208 235 258 284 308 90 98 86 73 40 22 43 67 105 159 177 186 177 174 185 189 184 184 191 168 162 164 173 189 189 175 173 177 179 172 177 177 185 204 182
191 148 235 314 12 243 73 263 235 195 284 286 276 231 166 154 160 169 164 168 137 126 150 161 175 199 183 177 180 190 182 192 212 184 173 159 165 185 199 183 181 175 182 175 177 184 183 188 189
196 181 173 202 195 263 8 244 256 212 250 261 270 280 180 186 178 170 167 166 174 174 178 181 199 208 190 187 191 189 194 204 207 193 170 182 189 201 183 190 183 178 177 175 179 182 188 187 198
192 214 235 341 66 15 231 271 295 277 242 243 254 272 255 194 203 177 151 168 170 172 179 180 187 209 199 194 188 200 200 211 212 212 186 176 169 172 176 189 187 179 179 182 183 183 188 192 193
184 192 91 237 184 229 265 262 246 288 286 298 329 287 280 185 139 131 153 161 166 171 167 165 185 197 213 198 197 195 209 208 204 209 212 191 169 155 158 174 183 178 179 178 183 184 188 186 186
161 220 213 174 176 178 265 257 355 103 63 15 354 4 349 196 147 151 164 134 157 156 153 178 188 191 212 213 200 205 217 206 203 207 199 171 137 146 159 167 167 171 176 181 185 181 181 187 180
234 210 195 161 234 229 199 253 107 90 93 80 7 19 18 21 85 115 150 163 178 205 192 201 199 198 206 216 211 222 206 198 197 200 180 154 156 159 165 166 169 174 179 179 185 176 180 178 176